Location: Arbon
(43.0005°N, 0.7472°E)
Time: 18:16:42
(UTC+00:00)

USA 229 - Pass Details

Date: 07 August 2020
Orbit: 973 x 1239 km, 63.4° (Epoch: 22 September)

Event Time Altitude Azimuth Distance (km) Brightness Sun altitude
Exits shadow 02:48:45 29° 197° (SSW) 1,725 4.3 -19.5°
Maximum altitude 02:52:10 69° 121° (ESE) 1,083 3.7 -19.1°
Drops below altitude 10° 02:58:53 10° 40° (NE) 2,892 7.2 -18.3°
Sets 03:01:37 0° 38° (NE) 3,890 8.3 -17.9°
